Location: Miles
(41.4492°N, 81.6087°W)
Time: 06:50:17
(UTC+00:00)

Vanguard 1 Rocket - Pass Details

Date: 16 September 2024
Orbit: 650 x 4218 km, 34.3° (Epoch: 05 October)

Event Time Altitude Azimuth Distance (km) Brightness Sun altitude
Rises 13:51:00 0° 280° (W) 7,279 11.5 28.8°
Reaches altitude 10° 13:55:29 10° 277° (W) 6,603 11.3 29.6°
Maximum altitude 14:18:14 55° 208° (SSW) 4,732 11.5 33.3°
Drops below altitude 10° 14:41:03 10° 139° (SE) 6,578 13.0 36.9°
Sets 14:45:34 0° 134° (SE) 7,246 12.9 37.6°
